EW7164 Weather Reports


time (UTC)temp
C
wind
direction
speed
KPH
gust
KPH
rain 1hr
cm
rain 24hr
cm
rain mn
cm
humidity
%
barometer
mb
20260905040915 17 311 12.9 17.7 0.00 0.03 0.00 90 1008.0
20260905040014 17 310 16.1 20.9 0.00 0.03 0.00 89 1008.0
20260905035015 17 315 9.7 14.5 0.00 0.03 0.03 89 1008.1
20260905034917 17 314 11.3 12.9 0.00 0.03 0.03 90 1008.0
20260905033929 17 313 12.9 17.7 0.00 0.03 0.03 89 1008.1
20260905033017 17 290 9.7 14.5 0.00 0.03 0.03 90 1008.0
20260905032016 17 294 12.9 19.3 0.00 0.03 0.03 89 1008.0
20260905031016 17 285 9.7 16.1 0.00 0.03 0.03 89 1008.1
20260905030015 18 275 9.7 11.3 0.00 0.03 0.03 88 1008.1
20260905025016 18 294 12.9 17.7 0.00 0.03 0.03 88 1008.0
20260905023116 18 315 11.3 16.1 0.00 0.03 0.03 88 1008.0
20260905022215 18 296 11.3 17.7 0.00 0.05 0.03 88 1008.1
20260905021232 18 290 9.7 14.5 0.00 0.05 0.03 87 1008.0
20260905020216 18 274 14.5 16.1 0.00 0.05 0.03 88 1008.0
20260905015313 18 270 12.9 17.7 0.00 0.05 0.03 88 1008.1
20260905015216 18 275 14.5 19.3 0.00 0.05 0.03 88 1008.1
20260905014315 18 273 16.1 17.7 0.00 0.05 0.03 88 1008.1
20260905013315 18 274 12.9 16.1 0.00 0.05 0.03 87 1008.2
20260905012317 18 291 11.3 16.1 0.00 0.08 0.03 86 1008.1
20260905011316 19 270 11.3 14.5 0.00 0.08 0.03 86 1008.2
20260905010314 19 270 11.3 14.5 0.00 0.08 0.03 85 1008.4
20260905005315 19 270 11.3 14.5 0.00 0.08 0.03 85 1008.4
20260905003317 19 269 12.9 16.1 0.00 0.10 0.03 85 1008.4
20260905002316 19 272 12.9 20.9 0.00 0.10 0.03 86 1008.3
20260905001315 18 263 11.3 16.1 0.00 0.10 0.03 87 1008.4
20260905001215 18 265 14.5 20.9 0.00 0.10 0.03 87 1008.4
20260904235315 19 265 11.3 20.9 0.00 0.13 0.03 86 1008.4
20260904235216 19 268 11.3 17.7 0.00 0.13 0.03 86 1008.3
20260904234216 19 259 12.9 17.7 0.00 0.15 0.03 85 1008.2
20260904233314 19 268 8.0 12.9 0.00 0.15 0.03 83 1008.3
20260904232316 19 261 8.0 11.3 0.00 0.18 0.03 84 1008.2
20260904231414 19 247 6.4 8.0 0.00 0.18 0.03 84 1008.2
20260904230416 19 225 1.6 8.0 0.00 0.20 0.03 86 1008.2
20260904225415 19 225 3.2 6.4 0.00 0.20 0.03 87 1008.2
20260904224414 20 229 4.8 8.0 0.00 0.23 0.03 87 1008.1
20260904224315 20 239 8.0 12.9 0.00 0.23 0.03 87 1008.2
20260904223315 20 254 3.2 4.8 0.00 0.23 0.03 88 1008.0
20260904222314 20 259 3.2 4.8 0.00 0.25 0.03 86 1008.0
20260904220317 20 225 0.0 0.0 0.00 0.28 0.03 84 1007.8
20260904215416 20 199 4.8 6.4 0.00 0.30 0.03 85 1007.9
20260904214416 21 222 4.8 6.4 0.00 0.33 0.03 84 1007.9
20260904212417 21 239 4.8 6.4 0.00 0.36 0.03 85 1008.0
20260904211515 21 225 3.2 4.8 0.00 0.38 0.03 82 1008.0
20260904210516 22 254 0.0 1.6 0.00 0.38 0.03 79 1008.1
20260904205614 22 22 0.0 0.0 0.00 0.38 0.03 77 1008.1
20260904205514 22 22 0.0 0.0 0.00 0.38 0.03 76 1008.1
20260904204517 22 90 0.0 0.0 0.00 0.41 0.03 74 1008.1
20260904203614 22 90 3.2 3.2 0.00 0.43 0.03 72 1008.0
20260904201616 24 10 6.4 8.0 0.00 0.46 0.03 68 1007.9
20260904195614 22 315 4.8 6.4 0.00 0.48 0.03 73 1008.0
20260904194615 22 62 3.2 4.8 0.00 0.48 0.03 72 1008.0
20260904194514 22 76 4.8 6.4 0.00 0.48 0.03 72 1007.9
20260904192615 22 3 3.2 8.0 0.00 0.53 0.03 72 1008.1
20260904192514 22 335 4.8 12.9 0.00 0.53 0.03 72 1007.9
20260904191614 22 36 4.8 9.7 0.00 0.53 0.03 72 1008.0
20260904190618 22 334 8.0 12.9 0.00 0.56 0.03 73 1008.2
20260904185714 22 329 8.0 11.3 0.00 0.58 0.03 74 1008.2
20260904184814 22 334 6.4 11.3 0.00 0.61 0.03 74 1008.4
20260904184715 22 326 6.4 8.0 0.00 0.61 0.03 73 1008.4
20260904183814 22 360 8.0 11.3 0.00 0.64 0.03 76 1008.4
20260904183713 21 354 4.8 9.7 0.00 0.64 0.03 76 1008.4
20260904182715 21 345 6.4 11.3 0.00 0.66 0.03 77 1008.5
20260904180714 20 316 8.0 14.5 0.00 0.66 0.03 80 1008.7
20260904174715 20 354 6.4 12.9 0.00 0.66 0.03 82 1008.8
20260904173813 20 320 8.0 14.5 0.00 0.69 0.03 84 1008.9
20260904172817 19 335 11.3 16.1 0.00 0.69 0.03 85 1009.0
20260904171715 18 300 6.4 11.3 0.00 0.69 0.03 88 1009.1
20260904170815 18 311 11.3 17.7 0.00 0.69 0.03 88 1009.3
20260904170717 18 302 16.1 20.9 0.00 0.69 0.03 87 1009.2
20260904164716 18 309 8.0 11.3 0.00 0.69 0.03 88 1009.3
20260904163715 18 304 1.6 8.0 0.00 0.69 0.03 90 1009.3
20260904162717 17 343 6.4 9.7 0.00 0.71 0.03 90 1009.4
20260904161715 17 327 11.3 16.1 0.00 0.71 0.03 90 1009.3
20260904160716 17 286 16.1 20.9 0.00 0.71 0.03 91 1009.5
20260904155715 17 297 12.9 17.7 0.00 0.76 0.03 92 1009.5
20260904154716 17 321 9.7 12.9 0.00 0.79 0.03 92 1009.7
20260904154615 17 315 11.3 14.5 0.00 0.79 0.03 92 1009.7
20260904153615 17 317 11.3 17.7 0.00 0.84 0.03 94 1009.9
20260904152713 17 311 6.4 9.7 0.00 0.84 0.03 95 1010.0
20260904151717 17 279 16.1 22.5 0.00 0.94 0.03 96 1009.9
20260904150814 16 315 9.7 14.5 0.00 0.99 0.03 95 1010.0
20260904150716 16 315 8.0 16.1 0.00 0.99 0.03 95 1009.9
20260904145815 16 315 8.0 12.9 0.00 1.09 0.03 97 1010.0
20260904144813 16 305 9.7 16.1 0.00 1.22 0.03 97 1010.0
20260904142815 16 288 4.8 6.4 0.00 1.40 0.03 96 1010.2
20260904140817 16 317 8.0 11.3 0.00 1.55 0.03 96 1010.1
20260904140715 16 319 6.4 12.9 0.00 1.55 0.03 97 1010.2
20260904135715 16 329 8.0 11.3 0.00 1.80 0.03 96 1010.3
20260904135614 16 336 6.4 9.7 0.00 1.83 0.03 97 1010.4
20260904134614 16 329 8.0 9.7 0.00 2.06 0.03 96 1010.5
20260904133617 15 315 6.4 8.0 0.00 2.29 0.03 97 1010.6
20260904132617 15 315 9.7 14.5 0.00 2.39 0.03 97 1010.5
20260904131614 15 315 6.4 8.0 0.00 2.57 0.03 97 1010.5
20260904130617 15 316 6.4 8.0 0.00 2.62 0.03 97 1010.4
20260904125713 15 312 6.4 11.3 0.00 2.64 0.03 97 1010.5
20260904125614 15 333 4.8 9.7 0.00 2.64 0.03 96 1010.5
20260904124714 15 348 8.0 11.3 0.00 2.69 0.03 97 1010.6
20260904123715 15 360 8.0 11.3 0.00 2.74 0.03 97 1010.5
20260904122716 15 326 4.8 9.7 0.00 2.82 0.03 96 1010.5
20260904121715 15 332 8.0 12.9 0.00 2.97 0.03 97 1010.6
20260904121615 15 348 8.0 11.3 0.00 2.97 0.03 97 1010.6
20260904120615 15 339 4.8 6.4 0.03 3.05 0.03 97 1010.7
20260904115616 15 320 11.3 16.1 0.03 3.07 0.03 97 1010.6
20260904115515 15 312 12.9 17.7 0.03 3.10 0.03 97 1010.7
20260904113516 15 316 11.3 17.7 0.03 3.12 0.03 96 1010.4
20260904112516 15 318 6.4 9.7 0.03 3.15 0.03 97 1010.2
20260904111514 15 320 12.9 16.1 0.03 3.15 0.00 96 1010.4
20260904111415 15 319 11.3 17.7 0.00 3.12 0.00 97 1010.4
20260904110414 15 321 9.7 14.5 0.00 3.12 0.00 96 1010.3
20260904105414 15 315 9.7 11.3 0.00 3.15 0.00 98 1010.2
20260904104416 15 315 6.4 9.7 0.00 3.15 0.00 96 1010.1
20260904103514 15 313 6.4 8.0 0.00 3.17 0.00 97 1010.2
20260904102613 15 315 6.4 11.3 0.00 3.17 0.00 97 1010.0
20260904101614 15 315 8.0 12.9 0.00 3.17 0.00 97 1010.0
20260904100613 15 315 11.3 14.5 0.00 3.17 0.00 97 1010.0
20260904100514 15 315 8.0 11.3 0.00 3.17 0.00 97 1010.0
20260904095515 15 307 11.3 19.3 0.00 3.17 0.00 97 1010.0
20260904094515 15 285 12.9 16.1 0.00 3.17 0.00 96 1010.0
20260904093614 15 306 11.3 14.5 0.00 3.17 0.00 96 1010.0
20260904092613 15 289 9.7 11.3 0.00 3.17 0.00 97 1009.9
20260904092517 15 305 8.0 11.3 0.00 3.17 0.00 97 1009.9
20260904091615 15 313 9.7 14.5 0.00 3.17 0.00 97 1010.0
20260904090616 15 298 12.9 16.1 0.00 3.17 0.00 97 1010.0
20260904090514 15 302 9.7 12.9 0.00 3.17 0.00 97 1010.0
20260904085518 15 282 12.9 14.5 0.00 3.17 0.00 97 1010.0
20260904084614 15 279 4.8 8.0 0.00 3.17 0.00 96 1010.0
20260904084515 15 308 8.0 9.7 0.00 3.17 0.00 97 1010.0
20260904084413 15 292 8.0 12.9 0.00 3.17 0.00 97 1010.0
20260904083415 15 310 6.4 9.7 0.00 3.17 0.00 96 1010.0
20260904082417 15 278 8.0 9.7 0.00 3.17 0.00 96 1010.0
20260904081415 15 303 8.0 11.3 0.00 3.17 0.00 97 1010.0
20260904080416 15 279 9.7 12.9 0.00 3.17 0.00 97 1010.1
20260904075436 15 292 9.7 14.5 0.00 3.17 0.00 96 1009.9
20260904074437 15 283 8.0 11.3 0.00 3.17 0.00 97 1010.2
20260904073534 15 290 6.4 11.3 0.00 3.17 0.00 97 1010.4
20260904073436 15 288 11.3 14.5 0.00 3.17 0.00 96 1010.4
20260904071436 15 270 6.4 8.0 0.00 3.17 0.00 97 1010.2
20260904070437 15 292 4.8 6.4 0.00 3.17 0.00 96 1010.1
20260904065536 15 294 9.7 11.3 0.00 3.17 0.00 97 1010.4
20260904064536 15 292 4.8 6.4 0.00 3.17 0.00 97 1010.4
20260904063536 15 272 6.4 6.4 0.00 3.17 0.00 97 1010.7
20260904063434 15 273 8.0 11.3 0.00 3.17 0.00 96 1010.7
20260904062436 15 293 8.0 9.7 0.00 3.17 0.00 97 1010.8
20260904062337 15 271 6.4 11.3 0.00 3.17 0.00 97 1010.8
20260904061435 15 270 4.8 8.0 0.00 3.17 0.00 97 1010.9
20260904060438 15 292 8.0 11.3 0.00 3.17 0.00 97 1011.0
20260904055437 15 315 6.4 6.4 0.00 3.17 0.00 96 1010.7
20260904054437 15 292 6.4 6.4 0.00 3.17 0.00 96 1011.0
20260904053534 15 292 8.0 9.7 0.00 3.17 0.00 97 1011.0
20260904051536 15 315 8.0 9.7 0.00 3.17 0.00 97 1011.2
20260904050635 15 315 8.0 11.3 0.00 3.17 0.00 96 1011.4
20260904045636 15 315 6.4 9.7 0.00 3.17 0.00 97 1011.5
20260904043634 15 315 6.4 8.0 0.00 3.17 0.00 97 1011.8
20260904042635 15 315 4.8 6.4 0.00 3.17 0.00 96 1012.0
20260904041635 15 315 6.4 9.7 0.00 3.17 0.00 97 1011.9